Change the Weather History Date:

Sunday, March 16, 2014

  Actual Average Record
Temperature  
Mean Temperature 28 °F -  
Max Temperature 33 °F 46 °F 72 °F (2003)
Min Temperature 23 °F 29 °F 19 °F (1997)
Degree Days  
Heating Degree Days 37    
Moisture  
Dew Point 13 °F    
Average Humidity 58    
Maximum Humidity 82    
Minimum Humidity 36    
Precipitation  
Precipitation 0.00 in - - ()
Sea Level Pressure  
Sea Level Pressure 30.17 in    
Wind  
Wind Speed 13 mph (NE)    
Max Wind Speed 21 mph    
Max Gust Speed 30 mph    
Visibility 10 miles    
Events Snow    
Averages and records for this station are not official NWS values.
T = Trace of Precipitation, MM = Missing Value Source: NWS Daily Summary

Daily Weather History Graph

Daily Weather History Graph

Search for Another Location

Airport or City:

Trip Planner

Search our weather history database for the weather conditions in past years. The results will help you decide how hot, cold, wet, or windy it might be!

Date:

Astronomy

Mar. 16, 2014 Rise Set
Actual Time 7:42 AM EDT 7:40 PM EDT
Civil Twilight 7:15 AM EDT 8:07 PM EDT
Nautical Twilight 6:43 AM EDT 8:38 PM EDT
Astronomical Twilight 6:11 AM EDT 9:10 PM EDT
Moon 7:56 PM EDT (3/16) 7:25 AM EDT (3/16)
Length of Visible Light 12h 52m
Length of Day
11h 58m
Full, 100% of the Moon is Illuminated
Mar 16
Full
Mar 16
Full
Mar 23
Last Quarter
Mar 30
New
Apr 7
First Quarter

Hourly Weather History & Observations

Time (EDT) Temp. Windchill Dew Point Humidity Pressure Visibility Wind Dir Wind Speed Gust Speed Precip Events Conditions
12:53 AM 33.1 °F 25.5 °F 26.1 °F 75% 30.15 in 10.0 mi NNE 9.2 mph - N/A   Clear
1:53 AM 30.0 °F 24.1 °F 24.1 °F 79% 30.16 in 10.0 mi North 5.8 mph - N/A   Clear
2:53 AM 30.0 °F 20.5 °F 25.0 °F 82% 30.17 in 10.0 mi NNE 11.5 mph - N/A   Clear
3:53 AM 30.0 °F 20.5 °F 19.9 °F 66% 30.17 in 10.0 mi NNE 11.5 mph - N/A   Clear
4:53 AM 28.0 °F 18.1 °F 19.0 °F 69% 30.18 in 10.0 mi NE 11.5 mph - N/A   Clear
5:53 AM 28.0 °F 16.5 °F 19.9 °F 72% 30.19 in 10.0 mi NE 15.0 mph - N/A   Clear
6:33 AM 27.0 °F 16.1 °F 19.9 °F 75% 30.18 in 10.0 mi NE 12.7 mph - N/A   Mostly Cloudy
6:53 AM 27.0 °F 16.1 °F 19.9 °F 75% 30.20 in 10.0 mi NE 12.7 mph - N/A   Overcast
7:53 AM 27.0 °F 15.6 °F 19.0 °F 72% 30.21 in 10.0 mi NE 13.8 mph - N/A   Overcast
8:53 AM 26.1 °F 15.0 °F 18.0 °F 71% 30.24 in 10.0 mi ENE 12.7 mph - N/A   Overcast
9:48 AM 24.8 °F 10.7 °F 14.0 °F 64% 30.20 in 10.0 mi NE 19.6 mph 29.9 mph 0.00 in Snow Light Snow
9:53 AM 25.0 °F 10.6 °F 12.9 °F 60% 30.23 in 9.0 mi ENE 20.7 mph 29.9 mph 0.00 in   Partly Cloudy
10:53 AM 26.1 °F 13.6 °F 12.9 °F 58% 30.26 in 10.0 mi NE 16.1 mph 25.3 mph N/A   Clear
11:53 AM 27.0 °F 13.9 °F 12.9 °F 56% 30.25 in 10.0 mi NE 18.4 mph 25.3 mph N/A   Clear
12:53 PM 28.0 °F 16.5 °F 10.9 °F 49% 30.23 in 10.0 mi NE 15.0 mph 23.0 mph N/A   Clear
1:53 PM 28.0 °F 16.1 °F 10.9 °F 49% 30.20 in 10.0 mi NE 16.1 mph 26.5 mph N/A   Clear
2:53 PM 28.0 °F 15.7 °F 7.0 °F 41% 30.19 in 10.0 mi NE 17.3 mph - N/A   Clear
3:53 PM 28.0 °F 14.9 °F 3.9 °F 36% 30.16 in 10.0 mi ENE 19.6 mph 27.6 mph N/A   Clear
4:53 PM 28.0 °F 16.1 °F 5.0 °F 38% 30.13 in 10.0 mi NE 16.1 mph 25.3 mph N/A   Mostly Cloudy
5:53 PM 28.0 °F 17.0 °F 5.0 °F 38% 30.12 in 10.0 mi NE 13.8 mph 24.2 mph 0.00 in   Clear
6:53 PM 26.1 °F 14.5 °F 5.0 °F 41% 30.09 in 10.0 mi NE 13.8 mph 28.8 mph N/A   Clear
7:53 PM 25.0 °F 12.2 °F 6.1 °F 45% 30.09 in 10.0 mi NNE 16.1 mph - N/A   Partly Cloudy
8:53 PM 25.0 °F 13.6 °F 7.0 °F 46% 30.09 in 10.0 mi NE 12.7 mph 23.0 mph N/A   Partly Cloudy
9:53 PM 24.1 °F 12.0 °F 6.1 °F 46% 30.08 in 10.0 mi NNE 13.8 mph - N/A   Scattered Clouds
10:53 PM 23.0 °F 11.1 °F 10.0 °F 58% 30.09 in 10.0 mi NE 12.7 mph - N/A   Clear
11:53 PM 23.0 °F 11.1 °F 10.0 °F 58% 30.07 in 10.0 mi NNE 12.7 mph 21.9 mph N/A   Clear